Regional Weather Roundup
Issued by NWS Northern Indiana

Home | Current Version | Previous Version | Graphics & Text | Print | Product List | Glossary On
Versions: 1 2 3 4 5 6 7 8 9 10 11 12 13 14 15 16 17 18 19 20 21 22 23 24 25 26 27 28 29 30 31 32 33 34 35 36 37 38 39 40 41 42 43 44 45 46 47 48 49 50
000
ASUS43 KIWX 212310
RWRIWX

KIWX WEATHER ROUNDUP
NATIONAL WEATHER SERVICE NORTHERN INDIANA
700 PM EDT SAT APR 21 2018

NOTE: "FAIR" INDICATES FEW OR NO CLOUDS BELOW 12,000 FEET WITH NO
SIGNIFICANT WEATHER AND/OR OBSTRUCTIONS TO VISIBILITY.

* THESE STATIONS ARE NOT UNDER NWS QUALITY CONTROL. THEY ALSO MAY NOT
  REPORT WEATHER SUCH AS PRECIPITATION OR FOG.

INZ001>027-220000-
NORTHERN INDIANA

CITY           SKY/WX    TMP DP  RH WIND       PRES   REMARKS
GARY*          CLOUDY    45  28  53 NE5       30.38F
VALPARAISO     FAIR      54  30  40 NE6       30.36F
MICHIGAN CITY* FAIR      48  25  40 CALM      30.37F
LAPORTE*       FAIR      52  31  43 N3        30.37F
KNOX*          FAIR      54  28  37 E7        30.36F
SOUTH BEND     CLOUDY    55  25  31 CALM      30.37F
GOSHEN         CLOUDY    55  33  43 CALM      30.37F
MONTICELLO*    PTSUNNY   56  22  27 NE10      30.33F
LOGANSPORT*    CLOUDY    54  25  32 E9        30.36S
ROCHESTER*     FAIR      55  23  28 E8        30.37F
WARSAW*        CLOUDY    54  28  37 E5        30.37S
AUBURN*        CLOUDY    52  28  40 E5        30.38F
FORT WAYNE     CLOUDY    54  26  34 NE10      30.38F
HUNTINGTON*    FAIR      53  22  30 E6        30.37S
PERU/GRISSOM   CLOUDY    55  21  26 E10       30.34F
MARION*        PTSUNNY   54  25  33 NE3G10    30.36S

$$
INZ028>050-220000-
CENTRAL INDIANA

CITY           SKY/WX    TMP DP  RH WIND       PRES   REMARKS
LAFAYETTE      FAIR      56  24  29 NE20      30.32S
KOKOMO*        CLOUDY    53  29  39 NE12      30.36S
MUNCIE*        PTSUNNY   57  21  24 NE10      30.35R
INDIANAPOLIS   PTSUNNY   59  21  23 E10       30.31S

$$
MIZ043>046-050>051-056>058-064>065-071>073-077>080-220000-
SOUTHWEST LOWER MICHIGAN

CITY           SKY/WX    TMP DP  RH WIND       PRES   REMARKS
BATTLE CREEK   FAIR      58  25  28 CALM      30.37F
BENTON HARBOR  FAIR      50  17  27 VRB6      30.37F
COLDWATER*     FAIR      56  26  31 S3        30.37F
HILLSDALE*     FAIR      54  23  30 NE5       30.37F
HOLLAND        FAIR      52  20  28 W5        30.38F
GRAND RAPIDS   PTSUNNY   57  21  24 VRB5      30.37F
KALAMAZOO      FAIR      58  25  28 W6        30.37F
STURGIS*       CLOUDY    57  28  32 SW3       30.36F
THREE RIVERS*  PTSUNNY   58  27  30 S6        30.36F

$$
OHZ001>008-015>018-024>025-220000-
NORTHWEST OHIO

CITY           SKY/WX    TMP DP  RH WIND       PRES   REMARKS
WAUSEON*       FAIR      55  25  30 NE8       30.39F
DEFIANCE       PTSUNNY   55  27  34 E5        30.38
FINDLAY        CLOUDY    54  19  25 NE12      30.38F
TOLEDO EXPRESS FAIR      53  20  27 NE9       30.40F
TOLEDO METCALF FAIR      51  16  24 E8        30.42F
LIMA           PTSUNNY   52  27  38 NE13      30.37F

$$
AND FOR LAKE MICHIGAN COASTAL AND OPEN LAKE BUOY OBSERVATIONS

STATION/POSITION TEMP    WIND        PRES    VSBY  WAVE
                 AIR SEA DIR/SP/G                  HT/PER
                 (F)     (DEG/KT/KT) (MB)    (MI)  (FT/S)
CALUMET HARBOR    41      30/  3/  4 1027.9F
MICHIGAN CITY     42      50/  5/  5   N/A
BURNS HARBOR      43      70/  7/  8 1028.8F
SAINT JOSEPH      45      20/  8/ 10 1029.1

$$
&&




USA.gov is the U.S. government's official web portal to all federal, state and local government web resources and services.